OpenBCM V1.13 (Linux)

Packet Radio Mailbox

DB0FHN

[JN59NK Nuernberg]

 Login: GUEST





  
CX2ACB > KEPS     14.02.03 13:26l 170 Lines 8060 Bytes #999 (0) @ AMSAT
BID : ORB03044.N
Read: DB0FHN GUEST
Subj: 2Line Orbital Elements 03044.AMSAT
Path: DB0FHN<DB0ZWI<DB0HST<HB9OK<HA3PG<JE7YGF<7M3TJZ<ON4HU<CX2ACB
Sent: 030214/1112Z @:CX2ACB.MVD.URY.SA #:9762 [Montevideo] $:ORB03044.N
From: CX2ACB@CX2ACB.MVD.URY.SA
To  : KEPS@AMSAT

HR AMSAT ORBITAL ELEMENTS FOR AMATEUR SATELLITES IN NASA FORMAT
FROM WA5QGD FORT WORTH,TX February 13, 2003
SEND SUBSCRIBE/UNSUBSCRIBE TO majordomo@amsat.org ONLY
BID: ORB03044.N

DECODE 2-LINE ELSETS WITH THE FOLLOWING KEY:
1 AAAAAU 00  0  0 BBBBB.BBBBBBBB  .CCCCCCCC  00000-0  00000-0 0  DDDZ
2 AAAAA EEE.EEEE FFF.FFFF GGGGGGG HHH.HHHH III.IIII JJ.JJJJJJJJKKKKKZ
KEY: A-CATALOGNUM B-EPOCHTIME C-DECAY D-ELSETNUM E-INCLINATION F-RAAN
G-ECCENTRICITY H-ARGPERIGEE I-MNANOM J-MNMOTION K-ORBITNUM Z-CHECKSUM

TO ALL RADIO AMATEURS BT

AO-07
1 07530U 74089B   03044.66387538 -.00000029  00000-0  10000-3 0  1493
2 07530 101.7611  92.4958 0012295  87.8730 272.3745 12.53564338292578
AO-10
1 14129U 83058B   03041.63642645  .00000117  00000-0  10000-3 0  9167
2 14129  25.9157 165.6251 6028355 326.7167   6.8087  2.05866882147876
UO-11
1 14781U 84021B   03044.19524793  .00001756  00000-0  25073-3 0   694
2 14781  98.1169  18.0769 0008336 224.4883 135.5663 14.77980383 15442
RS-10/11
1 18129U 87054A   03043.82529073  .00000092  00000-0  83428-4 0  1993
2 18129  82.9262 150.8051 0010159 242.7255 117.2863 13.72700628783726
FO-20
1 20480U 90013C   03044.47860499  .00000029  00000-0  13765-3 0  4626
2 20480  99.0470   8.1790 0540693  15.4045 346.2813 12.83330218609863
RS-12/13
1 21089U 91007A   03044.88149015  .00000075  00000-0  63542-4 0  4906
2 21089  82.9234 184.8530 0028080 301.7096  58.1322 13.74403715603143
RS-15
1 23439U 94085A   03043.97207093 -.00000035  00000-0  22102-3 0 06844
2 23439 064.8157 050.5320 0146914 116.2908 245.3192 11.27547725334963
FO-29
1 24278U 96046B   03043.92073258  .00000042  00000-0  80901-4 0 05730
2 24278 098.5354 195.9065 0349975 231.1009 125.8435 13.52871869320549
SO-33
1 25509U 98061B   03044.54552862  .00001126  00000-0  21172-3 0  7784
2 25509  31.4288 181.5439 0358375 258.9955  97.0202 14.27427092224594
AO-40
1 26609U 00072B   03042.26455231 -.00000067  00000-0  10000-3 0  3104
2 26609   8.0482  65.4048 7940113 142.6388 315.2305  1.25596326 10493
UO-14
1 20437U 90005B   03044.18557254  .00000136  00000-0  67158-4 0  1632
2 20437  98.2738  88.0563 0009949 215.6245 144.4275 14.31235925681727
AO-16
1 20439U 90005D   03044.69065068  .00000172  00000-0  80497-4 0  8512
2 20439  98.3187 100.1926 0010193 221.1714 138.8713 14.31469963681830
WO-18
1 20441U 90005F   03044.88141049  .00000176  00000-0  81892-4 0   112
2 20441  98.3337 103.4708 0011026 219.1838 140.8549 14.31551861681912
LO-19
1 20442U 90005G   03044.23138809  .00000195  00000-0  88626-4 0  9620
2 20442  98.3482 105.8617 0011128 222.3831 137.6494 14.31714582681870
UO-22
1 21575U 91050B   03044.15431981  .00000355  00000-0  12779-3 0  7246
2 21575  98.1408  36.5495 0007978 143.2200 216.9538 14.39150395607509
KO-23
1 22077U 92052B   03044.51429948 -.00000037  00000-0  10000-3 0  1547
2 22077  66.0872 136.3141 0015528 275.1186  84.8061 12.86408248493656
AO-27
1 22825U 93061C   03044.22079390  .00000157  00000-0  78188-4 0  4850
2 22825  98.2756  74.1900 0007624 278.4614  81.5704 14.28941055489117
IO-26
1 22826U 93061D   03044.11188106  .00000173  00000-0  84137-4 0  3077
2 22826  98.2767  75.2007 0008222 279.1156  80.9094 14.29163859489141
KO-25
1 22828U 93061F   03044.16350113  .00000133  00000-0  68023-4 0  4245
2 22828  98.2714  75.5119 0009098 253.2809 106.7374 14.29506143457355
TO-31
1 25396U 98043C   03043.91273721 -.00000043  00000-0  00000-0 0 08257
2 25396 098.6281 121.1306 0003622 139.2789 220.8667 14.23508990238721
GO-32
1 25397U 98043D   03043.93235492  .00000084  00000-0  56371-4 0 01335
2 25397 098.6224 120.0366 0001678 133.8159 226.3156 14.22958555238698
UO-36
1 25693U 99021A   03044.40216824  .00000612  00000-0  10747-3 0  7016
2 25693  64.5600  26.5997 0019697 315.8098  44.1459 14.76382750205492
AO-37
1 26065U 00004E   03044.21495537  .00000203  00000-0  90566-4 0  7320
2 26065 100.2113  97.9709 0037023 303.3937  56.3703 14.35506589159615
SO-41
1 26545U 00057A   03044.27158738  .00001663  00000-0  23895-3 0  4111
2 26545  64.5596  48.2041 0052420 239.6318 119.9553 14.78969627128433
MO-46
1 26548U 00057D   03043.49212840  .00002185  00000-0  29311-3 0  4144
2 26548  64.5585  43.5560 0045853 238.7966 120.8658 14.81251807128467
SO-42
1 26549U 00057E   03044.50686210  .00001406  00000-0  20936-3 0  6910
2 26549  64.5517  51.5678 0056925 239.7181 119.8285 14.77906820128397
NO-44
1 26931U 01043C   03044.20640267  .00000188  00000-0  10666-3 0  4003
2 26931  67.0477 269.4199 0004998 264.8882  95.1647 14.29112460 71585
AO-49
1 27605U 02058A   03044.89029666  .00000515  00000-0  10396-3 0   570
2 27605  64.5524 211.4435 0034873 115.2981 245.1748 14.71353621  8125
SO-50
1 27607U 02058C   03044.53992275  .00001379  00000-0  24940-3 0   511
2 27607  64.5508 212.9122 0037647 112.5655 247.9441 14.69889488  8063
NOAA-10
1 16969U 86073A   03044.92086218  .00000198  00000-0  99658-4 0  6606
2 16969  98.7293  39.0407 0013350  99.4090 260.8600 14.27062257853247
NOAA-11
1 19531U 88089A   03044.91402461  .00000218  00000-0  13662-3 0  4986
2 19531  98.9021 126.3117 0011227 212.9674 147.0799 14.14535639742141
NOAA-12
1 21263U 91032A   03044.91993726  .00000400  00000-0  18897-3 0  9671
2 21263  98.6256  34.6256 0013636  37.7170 322.4962 14.25078021610557
MET-3/5
1 21655U 91056A   03043.97633637  .00000051  00000-0  10000-3 0 06069
2 21655 082.5539 042.8091 0012508 209.6358 150.4056 13.16979613552746
MET-2/21
1 22782U 93055A   03043.82136151  .00000078  00000-0  57044-4 0  5164
2 22782  82.5466 219.4508 0022548   5.7246 354.4160 13.83531774477292
OKEAN-4
1 23317U 94066A   03044.51385109  .00001860  00000-0  23657-3 0  1829
2 23317  82.5420 333.6220 0024856  68.2615 292.1251 14.80899224449355
NOAA-14
1 23455U 94089A   03044.87244015  .00000178  00000-0  11984-3 0  5214
2 23455  99.1879  63.3172 0008600 241.1411 118.8898 14.13295459418812
SICH-1
1 23657U 95046A   03043.90619398  .00001580  00000-0  20501-3 0 00583
2 23657 082.5302 114.9683 0026268 053.1181 307.2437 14.79948191401396
NOAA-15
1 25338U 98030A   03044.89133965  .00000202  00000-0  10613-3 0    41
2 25338  98.5502  67.1682 0010382 336.0221  24.0474 14.24242323247138
RESURS
1 25394U 98043A   03044.85751669  .00000164  00000-0  90519-4 0  4472
2 25394  98.6313 122.8730 0002329 112.4605 247.6820 14.23876279238868
FENGYUN1
1 25730U 99025A   03044.90451437 -.00000018  00000-0  13355-4 0  7669
2 25730  98.6342  69.4794 0014719  19.5332 340.6403 14.11732924193978
OKEAN-0
1 25860U 99039A   03044.53933005  .00000792  00000-0  13194-3 0  9977
2 25860  97.8641  92.2368 0002129  86.6821 273.4632 14.72600172192192
NOAA-16
1 26536U 00055A   03044.62128179  .00000613  00000-0  35949-3 0  2063
2 26536  98.9012 352.9413 0010346 324.3152  35.7318 14.11903458123452
NOAA-17
1 27453U 02032A   03044.85557399  .00000302  00000-0  15270-3 0  3021
2 27453  98.7595 116.0927 0012196  14.4133 345.7391 14.23290755 33294
HUBBLE
1 20580U 90037B   03044.15485510  .00004025  00000-0  32119-3 0  3268
2 20580  28.4683  73.2471 0004329 207.3076 216.3520 14.97802143501829
UARS
1 21701U 91063B   03044.10833784  .00000891  00000-0  84863-4 0  8232
2 21701  56.9813  54.1529 0004748 115.2177 244.9352 15.02846357624897
PO-34
1 25520U 98064B   03043.82387660  .00003285  00000-0  16669-3 0 06403
2 25520 028.4592 262.1240 0005695 284.6721 075.3214 15.13855201236710
ISS
1 25544U 98067A   03044.84137411  .00022645  00000-0  29793-3 0  6876
2 25544  51.6338 279.7129 0012507 196.8723 262.2275 15.58289993241761
WO-39
1 26061U 00004A   03044.56878454  .00000635  00000-0  22894-3 0  7649
2 26061 100.2088 100.7110 0034758 293.8946  65.8597 14.37819455159815
OO-38
1 26063U 00004C   03044.67618573  .00000177  00000-0  81699-4 0  7209
2 26063 100.2136  98.3687 0036951 301.1050  58.6501 14.35479375159689
SO-43
1 26929U 01043A   03021.14417834  .23075867  62110-5  22771-3 0  7155
2 26929  67.0082  58.0340 0002739 336.9161  23.5083 16.51128562 74338
NO-45
1 26932U 01043D   03044.53499581  .00000141  00000-0  87954-4 0  3958
2 26932  67.0550 268.2809 0005098 240.5079 119.5514 14.29292834 71650


Read previous mail | Read next mail


 11.09.2026 03:24:22lGo back Go up